Flag for U.S.A. Weather past 2 weeks in Montgomery, Alabama, U.S.A.

Now
83 °F

Partly sunny.


Feels Like: 89 °F
Forecast: 73 / 88 °F
Wind: 2 mph from Northwest

Location: Maxwell Air Force Base / Montgomery

Current Time: Jul 24, 2014 at 6:02:56 PM

Latest Report: Jul 24, 2014 at 4:58 PM


Visibility: 10 mi

Pressure: 29.93 "Hg

Humidity: 73%

Dew point: 74 °F

Location of MontgomeryLocation

Historic Weather in Montgomery — Graph

°F

Montgomery temperature yesterday

Maximum temperature yesterday: 90 °F (at 2:58 PM)
Minimum temperature yesterday: 73 °F (at 4:58 AM)
Average temperature yesterday: 81 °F

Past Weeks' High & Low Weather Summary

 TemperatureHumidityPressure
High94 °F (Jul 14, 3:58 PM)100% (Jul 9, 5:58 PM)30.16 "Hg (Jul 9, 5:58 PM)
Low64 °F (Jul 17, 5:58 AM)35% (Jul 16, 2:58 PM)29.85 "Hg (Jul 15, 4:58 PM)
Average78 °F83%30.02 "Hg
* Reported Jul 9 4:58 PM — Jul 24 4:58 PM, Montgomery, Weather by CustomWeather, © 2014

Note: Actual official high and low records may vary slightly from our data, if they occured in-between our weather recording intervals... More about our weather records

Advertising

Montgomery weather history for previous 24 hours

 ConditionsComfort  
Time TempWeatherWind HumidityBarometerVisibility
4:58 PM
Jul 24
83 °FPartly sunny.2 mph73%29.93 "Hg10 mi
3:58 PM90 °FSunny.7 mph54%29.94 "Hg10 mi
2:58 PM90 °FScattered clouds.9 mph56%29.95 "Hg10 mi
1:58 PM89 °FPassing clouds.5 mph55%29.97 "Hg10 mi
12:58 PM88 °FSunny.5 mph60%29.99 "Hg10 mi
11:58 AM87 °FPassing clouds.5 mph62%30.01 "Hg10 mi
10:58 AM85 °FPassing clouds.6 mph66%30.02 "Hg10 mi
9:58 AM83 °FPassing clouds.7 mph74%30.03 "Hg10 mi
8:58 AM81 °FSunny.7 mph80%30.03 "Hg10 mi
7:58 AM77 °FSunny.3 mph94%30.02 "Hg8 mi
6:58 AM74 °FFog.3 mph100%30.00 "Hg4 mi
5:58 AM73 °FFog.3 mph100%29.99 "Hg5 mi
4:58 AM72 °FFog.5 mph100%29.98 "Hg6 mi
3:58 AM74 °FClear.3 mph100%29.98 "Hg8 mi
2:58 AM74 °FClear.2 mph99%29.97 "Hg9 mi
1:58 AM74 °FClear.2 mph98%29.98 "Hg10 mi
12:58 AM77 °FOvercast.1 mph91%30.00 "Hg10 mi
11:58 PM
Jul 23
77 °FClear.1 mph87%30.00 "Hg10 mi
10:58 PM78 °FClear.1 mph84%30.00 "Hg10 mi
9:58 PM80 °FClear.5 mph80%30.00 "Hg10 mi
8:58 PM81 °FPassing clouds.3 mph76%29.99 "Hg10 mi
7:58 PM83 °FScattered clouds.1 mph70%29.98 "Hg10 mi
6:58 PM88 °FSunny.2 mph57%29.97 "Hg10 mi
Weather by CustomWeather, © 2014

See weather overviewHow to use our weather pages